Flag for Croatia

Past Weather in 45°05'30"N, 14°07'15"E, Croatia — Yesterday and Last 2 Weeks

Now
73 °F

Sunny.


Feels Like: 75 °F
Forecast: 73 / 50 °F
Wind: 2 mph from Southwest

Location: Rijeka/Kozala

Current Time: Apr 9, 2020 at 4:11:56 pm

Latest Report: Apr 9, 2020 at 3:00 pm


Visibility: 11 mi

Pressure: 30.15 "Hg

Humidity: 22%

Dew Point: 32 °F

Location of 45°05'30"N, 14°07'15"ELocation

Past Weather in 45°05'30"N, 14°07'15"E — Graph

°F

45°05'30"N, 14°07'15"E Temperature Yesterday

Maximum temperature yesterday: 73 °F (at 5:00 pm)
Minimum temperature yesterday: 49 °F (at 6:00 am)
Average temperature yesterday: 63 °F

High & Low Weather Summary for the Past Weeks

 TemperatureHumidityPressure
High73 °F (Apr 9, 2:00 pm)69% (Mar 28, 4:00 am)30.40 "Hg (Mar 28, 4:00 am)
Low37 °F (Mar 25, 9:00 pm)11% (Apr 7, 4:00 pm)29.87 "Hg (Mar 29, 6:00 pm)
Average54 °F38%30.11 "Hg
* Reported Mar 25 1:00 pm — Apr 9 2:00 pm, 45°05'30"N, 14°07'15"E. Weather by CustomWeather, © 2020

Note: Actual official high and low records may vary slightly from our data, if they occured in-between our weather recording intervals... More about our weather records

45°05'30"N, 14°07'15"E Weather History for the Previous 24 Hours

Scroll right to see more
 ConditionsComfort  
Time TempWeatherWind HumidityBarometerVisibility
2:00 pm
Thu, Apr 9
73 °FSunny.2 mph22%30.16 "Hg11 mi
1:00 pm71 °FSunny.2 mph22%30.18 "Hg11 mi
12:00 pm70 °FSunny.3 mph21%30.19 "Hg11 mi
11:00 am69 °FSunny.2 mph24%30.20 "Hg11 mi
10:00 am67 °FSunny.1 mph24%30.19 "Hg12 mi
9:00 am64 °FSunny.1 mph26%30.19 "Hg12 mi
8:00 am59 °FSunny.1 mph28%30.19 "Hg12 mi
7:00 am56 °FSunny.2 mph30%30.19 "Hg12 mi
6:00 am56 °FClear.3 mph28%30.19 "Hg12 mi
5:00 am53 °FClear.2 mph32%30.19 "Hg12 mi
2:00 am56 °FRefreshingly cool.1 mph26%30.23 "HgN/A
11:00 pm
Wed, Apr 8
60 °FRefreshingly cool.2 mph23%30.25 "HgN/A
10:00 pm62 °FClear.2 mph26%30.25 "Hg12 mi
9:00 pm64 °FClear.3 mph28%30.24 "Hg12 mi
8:00 pm65 °FClear.3 mph24%30.23 "Hg12 mi
7:00 pm68 °FMild.3 mph14%30.22 "HgN/A
6:00 pm71 °FMild.3 mph14%30.22 "HgN/A
5:00 pm73 °FMild.3 mph12%30.22 "HgN/A
4:00 pm72 °FMild.6 mph11%30.24 "HgN/A
Weather by CustomWeather, © 2020

See weather overview

Advertising